Temperature
4 3 3 3 3 4 4 4 5 5 5 5 5 5 6 6 6 6 6 6 6 6 6 6 6 7 7 7 7 7 7 7 7 7 7 8 8 8 8 8 8 8 9
3 3 3 3 3 3 4 4 4 4 5 5 5 5 5 5 5 5 5 6 6 6 6 6 6 6 6 6 6 6 6 6 6 6 6 6 7 7 7 8 8 8 8
3 3 3 3 3 3 3 3 3 4 4 4 4 4 4 4 4 5 5 5 5 5 5 5 5 5 5 6 6 6 6 6 6 6 6 6 6 6 7 7 7 7 7
3 2 2 2 2 2 3 3 3 3 3 4 4 4 4 4 4 4 4 4 4 5 5 5 5 5 5 5 5 5 5 5 5 5 5 5 6 6 6 6 6 6 7
3 2 2 2 2 2 2 2 3 3 3 3 3 3 3 3 3 3 4 4 4 4 4 4 4 4 4 4 4 4 4 4 4 5 5 5 5 5 5 5 5 6 6
2 2 2 2 2 2 2 2 2 2 2 2 3 3 3 3 3 3 3 3 3 3 3 3 3 3 3 3 3 3 3 4 4 4 4 4 4 5 5 5 5 5 6
2 2 1 1 1 1 2 2 2 2 2 2 2 2 2 2 2 2 2 2 2 3 3 3 3 3 3 3 3 3 3 3 3 3 3 3 4 4 4 4 4 4 5
1 1 1 1 0 1 1 1 1 1 1 1 1 1 1 1 1 2 2 2 2 2 2 2 2 2 2 2 2 2 2 2 2 2 3 3 3 3 3 3 3 3 4
1 0 0 0 0 0 0 0 0 0 1 1 1 1 1 1 1 1 1 1 1 1 1 2 2 1 1 1 1 1 2 2 2 2 2 2 2 2 3 3 3 3 3
-0 -0 -0 -0 -0 -1 -1 -1 -1 -1 -0 -0 0 0 0 0 0 0 0 1 1 1 1 1 1 1 1 1 1 1 1 1 1 1 1 2 2 2 2 2 3 3 3
-1 -1 -1 -1 -1 -1 -1 -1 -1 -1 -1 -1 -1 -0 -0 -0 0 0 0 0 0 0 0 0 0 1 1 1 1 1 1 1 1 1 1 1 2 2 2 2 2 2 2
-1 -1 -1 -1 -2 -2 -2 -2 -2 -2 -2 -2 -1 -1 -1 -1 -1 -0 -0 -0 -0 -0 -0 -0 -0 -0 0 0 0 0 0 0 0 1 1 1 1 1 1 1 2 2 2
-1 -2 -2 -2 -2 -2 -2 -3 -2 -2 -2 -2 -2 -2 -2 -1 -1 -1 -1 -1 -1 -1 -1 -1 -1 -1 -0 -0 -0 -0 -0 -0 0 0 0 0 1 1 1 1 1 2 2
-2 -2 -2 -2 -3 -3 -3 -3 -3 -3 -3 -3 -3 -2 -2 -2 -2 -2 -2 -2 -2 -2 -2 -1 -1 -1 -1 -1 -1 -1 -1 -1 -1 -0 -0 -0 0 1 1 1 1 1 1
-2 -3 -3 -3 -3 -3 -4 -4 -4 -4 -4 -4 -3 -3 -3 -3 -3 -3 -3 -3 -2 -2 -2 -2 -2 -2 -1 -1 -1 -1 -1 -1 -1 -1 -1 -1 -0 -0 0 0 0 1 1
-3 -3 -3 -4 -4 -4 -4 -4 -4 -4 -4 -4 -4 -4 -4 -4 -4 -3 -3 -3 -3 -3 -3 -3 -3 -2 -2 -2 -2 -2 -2 -2 -2 -2 -2 -2 -1 -1 -0 -0 -0 -0 -0
-3 -3 -4 -4 -4 -4 -5 -5 -5 -5 -5 -5 -5 -5 -5 -4 -4 -4 -4 -4 -4 -4 -4 -3 -3 -3 -3 -3 -3 -3 -3 -3 -2 -2 -2 -2 -2 -2 -1 -1 -1 -1 -1
-3 -4 -4 -4 -5 -5 -5 -5 -5 -5 -6 -6 -6 -6 -5 -5 -5 -5 -5 -4 -4 -4 -4 -4 -4 -4 -3 -3 -3 -3 -3 -3 -3 -3 -3 -3 -3 -2 -2 -2 -2 -1 -1
-4 -4 -5 -5 -5 -5 -6 -6 -6 -6 -6 -6 -6 -6 -6 -6 -6 -6 -5 -5 -5 -5 -5 -5 -5 -4 -4 -4 -4 -4 -4 -4 -4 -4 -4 -4 -3 -3 -3 -3 -2 -2 -2
-5 -5 -5 -5 -6 -6 -6 -6 -6 -6 -7 -7 -7 -7 -7 -7 -7 -6 -6 -6 -6 -6 -6 -5 -5 -5 -5 -5 -5 -5 -5 -5 -5 -5 -4 -4 -4 -4 -4 -3 -3 -3 -2
-5 -5 -6 -6 -6 -6 -6 -7 -7 -7 -7 -7 -7 -7 -7 -7 -7 -7 -7 -7 -7 -7 -6 -6 -6 -6 -6 -6 -6 -5 -5 -5 -5 -5 -5 -5 -5 -4 -4 -4 -4 -3 -3
-6 -6 -6 -6 -6 -7 -7 -7 -7 -7 -8 -8 -8 -8 -8 -8 -8 -8 -7 -7 -7 -7 -7 -7 -7 -7 -7 -7 -6 -6 -6 -6 -6 -6 -5 -5 -5 -5 -5 -4 -4 -4 -4
-6 -6 -7 -7 -7 -7 -8 -8 -8 -8 -8 -8 -8 -8 -8 -8 -8 -8 -8 -8 -8 -8 -8 -8 -8 -7 -7 -7 -7 -7 -6 -6 -6 -6 -6 -6 -6 -5 -5 -5 -5 -5 -4
-7 -7 -7 -7 -7 -8 -8 -8 -8 -9 -9 -9 -9 -9 -9 -9 -9 -9 -9 -9 -9 -9 -9 -8 -8 -8 -8 -8 -7 -7 -7 -6 -6 -6 -6 -6 -6 -6 -6 -6 -6 -5 -5
-7 -8 -8 -8 -8 -8 -8 -8 -9 -9 -9 -9 -9 -9 -9 -9 -9 -9 -9 -9 -9 -9 -9 -9 -9 -9 -8 -8 -8 -8 -7 -7 -7 -7 -7 -7 -7 -6 -6 -6 -6 -6 -6
-8 -8 -8 -8 -8 -8 -9 -9 -9 -9 -10 -10 -10 -10 -10 -10 -10 -10 -9 -9 -9 -9 -9 -9 -9 -9 -9 -9 -8 -8 -8 -8 -7 -7 -7 -7 -7 -7 -7 -7 -7 -7 -6
Wind_Speed
1 1 1 1 1 1 1 2 2 2 1 0 0 1 1 1 1 1 1 2 2 1 1 2 1 1 1 1 1 1 2 2 1 1 2 3 3 3 2 2 2 2 2
1 1 1 1 0 0 1 1 2 2 1 1 1 1 1 2 2 1 2 2 2 1 1 1 1 1 1 1 1 1 2 2 1 0 1 2 2 2 2 2 2 2 2
1 1 0 0 0 1 2 2 2 2 1 1 1 1 1 1 1 1 1 2 2 2 2 2 1 1 1 2 2 2 2 2 2 1 1 1 2 2 2 3 2 2 1
1 0 0 1 1 1 1 2 2 2 1 1 1 0 0 2 2 2 2 3 3 3 3 2 2 2 1 2 3 2 2 2 3 3 2 3 2 1 2 2 2 3 3
1 1 1 1 1 1 1 1 1 1 1 0 0 1 1 2 2 2 3 3 3 3 3 3 2 2 2 2 3 3 3 3 3 3 2 3 3 2 3 4 3 3 3
1 1 1 1 1 1 1 1 1 1 1 1 1 1 2 3 3 3 3 3 2 3 4 4 3 3 3 3 4 4 4 4 4 3 3 3 3 3 3 4 4 4 4
2 2 1 1 1 1 1 1 1 2 2 2 2 3 3 3 3 4 4 3 3 3 4 4 4 4 4 4 5 5 5 5 5 5 4 4 4 3 4 4 4 4 4
3 2 2 1 2 2 1 1 2 2 2 2 3 3 3 3 3 4 4 4 4 4 5 4 5 5 6 6 6 5 5 5 6 6 6 5 5 5 4 4 4 5 4
3 3 3 2 2 2 2 2 2 3 3 3 3 4 4 4 4 4 4 4 4 5 5 5 5 5 6 7 6 6 6 6 6 6 6 6 5 5 5 4 4 5 6
3 3 3 3 3 3 3 3 3 3 3 3 3 4 4 4 4 4 5 5 5 5 5 5 5 6 7 7 7 6 6 7 7 6 7 7 6 5 5 5 5 5 6
3 3 3 3 3 3 3 4 4 4 4 4 4 4 4 4 4 4 5 5 5 6 5 6 6 6 7 7 7 7 7 8 8 7 8 8 7 6 6 5 6 6 5
2 3 3 3 4 4 4 4 5 5 5 5 4 4 5 4 5 5 6 6 6 6 6 6 6 7 7 6 7 7 7 8 8 9 9 9 8 8 7 6 7 7 6
3 2 3 3 4 4 4 5 5 5 5 5 5 5 5 5 5 6 6 6 6 6 6 6 6 7 7 6 7 7 7 8 8 8 9 9 9 9 7 8 8 7 7
2 3 3 3 4 4 5 5 6 6 6 6 6 6 6 6 6 6 7 6 6 5 6 6 6 7 7 7 7 8 8 8 8 8 8 8 9 10 9 9 8 7 7
3 3 4 4 5 5 5 6 6 6 6 6 7 7 7 7 6 7 7 6 6 6 6 6 6 7 7 7 8 8 8 8 8 8 8 8 10 11 10 9 7 7 7
3 3 4 4 5 5 6 6 7 7 6 7 7 7 7 7 7 7 6 5 5 5 5 6 6 7 7 10 11 9 7 7 8 8 8 8 9 11 14 14 12 10 9
3 4 4 5 5 5 6 6 6 7 7 7 7 7 7 7 8 7 5 5 5 5 5 6 6 7 8 11 12 12 8 8 8 8 8 8 9 10 9 11 13 12 13
4 4 4 4 5 5 5 6 6 6 7 7 8 8 7 7 7 6 6 6 5 6 5 6 7 7 8 11 11 11 9 8 8 8 8 9 8 9 9 9 9 9 9
3 3 3 4 4 5 5 5 6 6 7 7 8 8 7 8 7 7 6 6 6 6 5 6 6 6 7 10 11 11 6 7 8 9 9 9 9 12 12 9 9 8 8
2 3 3 4 4 5 5 5 6 7 7 8 8 8 8 7 7 7 7 6 6 6 6 6 5 5 6 9 10 10 6 7 7 7 8 11 11 12 11 9 8 9 8
3 3 3 4 4 4 4 5 6 7 8 8 8 8 8 7 7 7 6 5 6 6 6 7 6 5 6 8 9 9 5 6 6 7 7 7 11 12 12 11 8 9 8
3 3 3 4 4 4 4 6 6 7 7 7 8 8 8 7 7 6 6 6 6 6 6 6 6 5 5 7 8 9 8 7 6 6 6 6 9 10 11 9 9 9 8
3 3 4 5 5 4 4 5 7 7 7 7 8 8 8 7 7 6 7 6 5 5 6 6 5 5 4 5 9 9 9 9 6 5 7 8 8 8 7 8 8 7 5
3 3 4 5 5 5 5 5 6 6 7 7 7 7 7 7 7 6 6 5 5 5 6 6 5 5 5 5 5 5 6 7 6 5 7 8 7 6 6 5 5 4 4
4 3 4 5 6 6 6 6 6 6 6 7 7 7 7 7 6 6 5 6 5 5 6 5 4 5 5 6 8 6 4 3 4 4 4 3 3 3 3 3 3 3 3
4 4 5 5 6 6 6 6 6 5 6 7 7 6 6 6 6 6 7 8 8 10 10 9 8 7 8 10 9 9 8 7 6 4 3 3 3 3 3 3 3 3 3
Wind_Direction
181 102 83 68 57 26 9 334 327 330 348 347 328 280 272 304 313 295 280 288 295 310 339 318 305 346 287 270 274 281 280 276 272 299 298 278 248 220 218 214 201 209 217
122 98 60 62 44 346 328 306 316 316 309 303 269 248 257 270 271 293 307 281 287 287 270 295 272 268 253 251 270 267 254 268 269 282 290 275 273 261 242 219 224 232 210
184 170 230 290 301 294 277 269 283 302 309 334 358 347 340 304 292 283 293 288 276 274 276 272 293 280 244 228 243 240 229 248 261 234 214 218 244 282 244 226 214 224 246
153 154 267 279 285 281 281 257 278 294 319 10 43 77 268 269 275 274 267 285 281 272 265 258 262 256 267 243 242 237 244 233 245 256 260 254 251 235 268 247 241 247 241
151 201 249 264 308 328 317 270 282 290 327 6 199 233 264 277 292 292 272 263 271 262 257 254 250 251 260 259 250 245 239 236 239 247 257 270 274 249 241 259 255 258 251
67 21 13 26 347 343 344 329 295 290 264 255 246 242 258 279 290 294 283 274 274 264 248 246 240 247 249 251 249 241 235 237 238 242 241 242 245 246 248 249 249 255 257
23 11 5 349 331 337 350 334 297 281 276 267 259 253 255 259 260 271 275 279 278 275 250 250 238 243 244 250 248 241 239 237 239 239 240 242 247 252 255 255 258 265 268
7 356 348 349 346 342 343 329 293 288 280 274 279 275 264 259 263 265 266 264 266 266 265 250 243 240 239 244 240 238 239 238 239 244 244 248 246 244 249 247 248 260 264
3 351 353 350 342 338 338 329 309 301 294 288 285 280 274 273 272 272 271 270 266 270 267 257 249 249 243 241 237 234 236 239 241 242 243 247 250 246 245 247 235 236 254
357 351 347 348 354 350 345 345 337 315 299 296 288 286 286 280 273 269 265 265 263 264 262 262 250 250 247 243 239 237 237 237 241 241 240 244 247 247 243 245 239 237 242
348 343 350 358 356 350 344 336 331 331 323 311 306 301 296 293 286 277 270 267 264 260 257 258 253 244 244 243 238 235 236 236 241 243 244 246 245 245 244 245 241 239 241
341 343 349 354 350 344 342 337 331 326 321 317 306 302 298 294 289 285 282 277 270 263 257 257 256 249 244 243 243 240 241 239 241 241 243 247 246 243 244 242 244 239 237
339 344 348 344 338 337 339 338 333 328 326 325 315 309 303 298 293 289 288 282 274 270 263 255 253 249 246 244 244 244 244 244 244 243 242 246 245 244 245 242 245 244 243
331 337 336 330 331 335 336 335 332 332 330 327 318 309 305 300 297 293 290 283 276 269 264 261 255 249 246 244 243 245 245 245 247 244 243 247 244 242 242 243 241 244 241
327 330 327 326 330 333 333 333 331 332 329 324 317 310 309 305 301 297 291 283 276 271 266 264 263 256 249 246 242 243 244 245 249 248 247 249 250 246 244 247 241 242 243
318 323 325 326 327 327 327 328 327 328 328 321 314 313 314 313 309 303 296 288 282 276 273 268 267 264 258 258 256 252 246 246 247 251 252 253 256 259 257 253 250 243 242
320 319 319 319 320 320 321 318 319 323 322 317 313 312 312 312 309 306 302 295 289 286 280 273 268 267 269 271 265 259 253 250 252 254 256 260 261 261 257 255 254 251 252
322 320 318 320 319 319 320 320 320 318 316 315 314 314 315 314 315 322 317 304 294 287 280 275 268 267 273 277 273 267 255 253 253 252 252 253 256 259 258 253 248 245 248
317 311 309 306 310 313 318 321 318 317 316 314 315 316 316 314 314 316 312 309 306 300 291 286 278 276 279 279 276 273 253 251 254 256 255 253 252 262 264 257 251 249 250
330 319 320 317 312 314 321 317 313 317 315 314 314 314 313 310 308 308 308 308 305 300 298 294 288 285 285 285 277 270 254 255 257 258 256 257 259 265 263 252 250 250 250
322 323 320 313 309 315 322 315 314 313 312 315 315 314 313 310 307 306 307 308 305 305 301 295 292 289 289 295 290 280 259 257 262 263 261 256 263 265 261 259 252 257 260
322 322 318 312 314 320 320 313 309 311 316 316 314 314 314 312 312 313 312 310 308 304 298 294 291 288 292 300 293 286 276 274 261 262 266 264 266 266 266 264 264 267 266
316 321 314 310 313 318 315 306 306 314 315 314 312 312 314 313 312 311 310 308 305 300 297 297 296 299 299 302 301 290 283 278 268 265 271 277 275 269 265 272 277 272 260
311 315 313 310 310 314 314 304 308 313 313 311 311 311 312 312 313 309 307 305 304 302 300 297 294 296 299 301 300 289 282 278 275 278 276 275 275 274 275 282 278 266 260
308 304 299 299 303 311 311 311 313 315 313 310 310 311 310 308 309 308 304 303 295 300 299 296 292 296 296 298 304 300 286 278 271 277 274 276 271 267 262 261 267 269 263
300 302 300 304 307 310 310 311 312 312 310 311 312 309 309 307 306 305 305 305 302 306 305 304 299 295 296 300 301 302 295 294 290 283 280 281 278 273 276 276 273 274 275
Height
1503 1503 1503 1502 1502 1502 1501 1502 1502 1502 1502 1502 1503 1504 1504 1506 1507 1508 1509 1510 1511 1511 1512 1513 1514 1515 1517 1517 1518 1519 1521 1521 1522 1523 1523 1524 1525 1526 1526 1527 1528 1529 1530
1500 1500 1500 1500 1499 1499 1499 1499 1499 1499 1499 1500 1500 1501 1502 1502 1503 1504 1505 1506 1507 1507 1508 1509 1510 1511 1513 1514 1515 1515 1517 1518 1519 1520 1520 1520 1522 1522 1523 1524 1525 1526 1526
1497 1497 1497 1497 1496 1496 1496 1496 1496 1496 1497 1497 1497 1498 1498 1499 1500 1501 1501 1502 1503 1503 1504 1505 1506 1507 1509 1510 1511 1512 1513 1514 1515 1517 1519 1519 1518 1518 1519 1520 1521 1522 1523
1495 1495 1495 1494 1494 1494 1494 1494 1494 1494 1494 1494 1494 1494 1495 1495 1496 1497 1497 1498 1499 1499 1500 1501 1502 1503 1505 1506 1507 1508 1509 1510 1511 1513 1514 1516 1516 1516 1515 1516 1517 1518 1519
1494 1494 1493 1493 1493 1492 1492 1491 1491 1491 1491 1491 1492 1492 1492 1492 1493 1493 1494 1494 1494 1495 1496 1497 1498 1499 1500 1501 1502 1503 1504 1506 1506 1508 1509 1511 1512 1512 1512 1511 1512 1513 1514
1493 1492 1492 1492 1491 1491 1490 1489 1489 1488 1488 1488 1488 1488 1489 1489 1489 1489 1490 1490 1490 1491 1492 1493 1493 1494 1496 1496 1498 1499 1500 1501 1502 1503 1505 1506 1507 1507 1508 1507 1507 1507 1508
1491 1491 1490 1489 1489 1488 1487 1487 1486 1486 1486 1485 1485 1486 1485 1485 1485 1485 1485 1485 1486 1486 1487 1488 1488 1489 1490 1492 1493 1494 1495 1496 1497 1498 1499 1501 1502 1503 1504 1504 1503 1503 1503
1490 1490 1489 1487 1487 1486 1486 1485 1484 1483 1483 1483 1483 1483 1482 1482 1482 1481 1481 1481 1481 1481 1482 1482 1483 1484 1485 1487 1488 1489 1489 1490 1491 1492 1494 1495 1496 1498 1499 1500 1500 1499 1498
1489 1489 1488 1487 1485 1485 1484 1483 1481 1481 1480 1480 1480 1479 1479 1478 1478 1478 1478 1477 1477 1477 1477 1477 1478 1479 1480 1481 1482 1483 1483 1485 1485 1487 1488 1489 1490 1492 1493 1494 1496 1496 1493
1489 1488 1487 1486 1485 1484 1482 1481 1480 1479 1478 1477 1476 1475 1475 1474 1474 1474 1473 1473 1472 1473 1472 1472 1472 1474 1475 1476 1476 1477 1478 1479 1480 1481 1482 1483 1484 1486 1487 1488 1489 1490 1490
1488 1487 1486 1485 1484 1482 1481 1479 1478 1476 1475 1474 1472 1471 1470 1470 1469 1469 1468 1468 1468 1467 1466 1467 1467 1468 1469 1470 1470 1471 1472 1473 1473 1474 1475 1476 1478 1479 1480 1481 1482 1483 1484
1487 1486 1485 1483 1482 1481 1479 1478 1476 1474 1472 1471 1469 1467 1466 1465 1464 1464 1463 1463 1462 1462 1461 1461 1462 1462 1463 1463 1464 1465 1466 1466 1467 1467 1468 1469 1471 1472 1473 1474 1475 1476 1477
1485 1484 1483 1481 1480 1479 1477 1475 1473 1471 1469 1468 1465 1463 1462 1460 1459 1458 1457 1456 1456 1455 1455 1455 1456 1456 1457 1457 1457 1458 1459 1459 1460 1461 1461 1462 1464 1464 1466 1467 1468 1469 1470
1483 1482 1481 1480 1478 1477 1475 1473 1471 1469 1467 1464 1462 1460 1458 1456 1454 1453 1451 1451 1450 1449 1449 1449 1449 1450 1450 1450 1451 1451 1452 1452 1453 1454 1454 1455 1456 1457 1458 1460 1460 1462 1463
1481 1480 1479 1478 1477 1475 1472 1470 1468 1465 1463 1461 1458 1455 1454 1452 1449 1447 1445 1444 1443 1443 1443 1443 1443 1443 1443 1443 1444 1445 1445 1445 1446 1447 1447 1448 1449 1450 1451 1452 1453 1454 1455
1479 1479 1478 1476 1474 1472 1470 1467 1465 1462 1460 1457 1454 1452 1449 1447 1444 1441 1439 1438 1437 1437 1437 1436 1437 1436 1437 1437 1438 1439 1439 1439 1439 1439 1440 1441 1442 1443 1444 1445 1446 1447 1448
1477 1476 1475 1473 1471 1470 1467 1464 1461 1459 1457 1454 1451 1448 1445 1442 1439 1436 1434 1433 1432 1432 1431 1431 1431 1430 1431 1431 1432 1432 1432 1433 1433 1433 1434 1434 1434 1436 1436 1437 1438 1439 1440
1475 1474 1472 1471 1469 1466 1464 1461 1458 1456 1453 1450 1447 1445 1442 1438 1435 1432 1430 1429 1428 1427 1426 1425 1425 1425 1425 1425 1425 1426 1426 1426 1426 1426 1427 1427 1427 1428 1429 1430 1430 1431 1432
1472 1471 1469 1468 1465 1463 1461 1458 1455 1453 1450 1447 1444 1441 1438 1435 1432 1428 1426 1424 1423 1422 1421 1420 1419 1419 1418 1419 1419 1420 1420 1419 1419 1420 1420 1420 1420 1421 1423 1423 1422 1422 1423
1469 1468 1466 1464 1462 1460 1457 1455 1452 1449 1446 1443 1440 1438 1435 1431 1428 1425 1423 1421 1419 1418 1416 1415 1414 1413 1412 1413 1413 1413 1413 1413 1413 1413 1413 1414 1414 1414 1415 1416 1415 1415 1416
1466 1464 1462 1460 1458 1456 1454 1451 1448 1446 1443 1440 1437 1434 1431 1428 1425 1422 1420 1418 1416 1414 1412 1410 1409 1408 1407 1407 1407 1407 1407 1407 1406 1406 1406 1407 1407 1408 1409 1409 1409 1409 1410
1462 1460 1458 1456 1455 1453 1450 1447 1445 1442 1439 1436 1433 1430 1427 1425 1422 1419 1416 1414 1412 1409 1408 1406 1404 1403 1402 1402 1401 1401 1401 1402 1401 1400 1400 1400 1401 1402 1403 1403 1403 1403 1404
1458 1457 1455 1453 1451 1449 1447 1444 1441 1439 1436 1433 1429 1426 1424 1421 1418 1415 1413 1410 1408 1406 1404 1402 1400 1398 1398 1397 1396 1396 1396 1396 1396 1395 1395 1396 1396 1396 1397 1397 1397 1397 1397
1455 1453 1452 1449 1447 1446 1444 1441 1438 1435 1432 1429 1426 1423 1420 1417 1415 1412 1410 1407 1405 1403 1401 1399 1396 1395 1394 1393 1392 1391 1391 1391 1391 1391 1390 1391 1391 1391 1391 1391 1391 1391 1391
1452 1450 1448 1446 1444 1442 1439 1437 1434 1432 1429 1425 1422 1419 1417 1414 1411 1409 1407 1404 1402 1401 1399 1396 1395 1393 1390 1390 1389 1388 1387 1386 1386 1386 1386 1385 1385 1385 1385 1385 1385 1386 1386
1448 1447 1445 1443 1440 1438 1436 1433 1431 1428 1425 1422 1419 1416 1414 1411 1409 1406 1403 1401 1400 1398 1396 1394 1393 1390 1389 1387 1386 1384 1383 1383 1383 1383 1381 1381 1381 1380 1380 1380 1380 1381 1381